Time,TemperatureF,DewpointF,PressureIn,WindDirection,WindDirectionDegrees,WindSpeedMPH,WindSpeedGustMPH,Humidity,HourlyPrecipIn,Conditions,Clouds,dailyrainin,SoftwareType,DateUTC
2013-07-12 00:01:00,72.8,59.0,29.89,ESE,111,0.0,-999.0,63,-99.99,,,0.00,weatherlink.com 1.10,2013-07-12 05:01:00,
2013-07-12 00:16:00,72.5,59.0,29.89,ESE,123,0.0,-999.0,63,-99.99,,,0.00,weatherlink.com 1.10,2013-07-12 05:16:00,
2013-07-12 00:31:00,72.4,59.0,29.89,SE,138,0.0,-999.0,64,-99.99,,,0.00,weatherlink.com 1.10,2013-07-12 05:31:00,
2013-07-12 00:46:00,72.4,59.0,29.89,SE,143,0.0,-999.0,64,-99.99,,,0.00,weatherlink.com 1.10,2013-07-12 05:46:00,
2013-07-12 01:01:00,72.4,59.0,29.89,SE,130,0.0,-999.0,63,-99.99,,,0.00,weatherlink.com 1.10,2013-07-12 06:01:00,
2013-07-12 01:16:00,72.2,59.0,29.89,ESE,117,0.0,-999.0,64,-99.99,,,0.00,weatherlink.com 1.10,2013-07-12 06:16:00,
2013-07-12 01:31:00,71.9,59.0,29.90,ESE,107,0.0,-999.0,65,-99.99,,,0.00,weatherlink.com 1.10,2013-07-12 06:31:00,
2013-07-12 01:46:00,71.6,59.0,29.89,WSW,249,0.0,-999.0,65,-99.99,,,0.00,weatherlink.com 1.10,2013-07-12 06:46:00,
2013-07-12 02:01:00,71.6,59.0,29.89,SE,144,0.0,-999.0,65,-99.99,,,0.00,weatherlink.com 1.10,2013-07-12 07:01:00,
2013-07-12 02:16:00,71.6,59.0,29.89,ESE,108,0.0,-999.0,65,-99.99,,,0.00,weatherlink.com 1.10,2013-07-12 07:16:00,
2013-07-12 02:31:00,71.7,59.0,29.89,SE,144,0.0,-999.0,65,-99.99,,,0.00,weatherlink.com 1.10,2013-07-12 07:31:00,
2013-07-12 02:46:00,71.6,59.0,29.89,SE,145,0.0,-999.0,65,-99.99,,,0.00,weatherlink.com 1.10,2013-07-12 07:46:00,
2013-07-12 03:01:00,71.6,59.0,29.89,SE,133,0.0,-999.0,65,-99.99,,,0.00,weatherlink.com 1.10,2013-07-12 08:01:00,
2013-07-12 03:16:00,71.5,59.0,29.89,SW,217,0.0,-999.0,65,-99.99,,,0.00,weatherlink.com 1.10,2013-07-12 08:16:00,
2013-07-12 03:31:00,71.5,59.0,29.90,SE,130,0.0,-999.0,65,-99.99,,,0.00,weatherlink.com 1.10,2013-07-12 08:31:00,
2013-07-12 03:46:00,71.2,59.0,29.90,SE,135,0.0,-999.0,66,-99.99,,,0.00,weatherlink.com 1.10,2013-07-12 08:46:00,
2013-07-12 04:01:00,70.8,59.0,29.90,SSE,155,0.0,-999.0,67,-99.99,,,0.00,weatherlink.com 1.10,2013-07-12 09:01:00,
2013-07-12 04:16:00,70.6,59.0,29.90,ESE,120,0.0,-999.0,67,-99.99,,,0.00,weatherlink.com 1.10,2013-07-12 09:16:00,
2013-07-12 04:31:00,70.3,59.0,29.89,ESE,123,0.0,-999.0,68,-99.99,,,0.00,weatherlink.com 1.10,2013-07-12 09:31:00,
2013-07-12 04:46:00,70.2,59.0,29.90,SE,128,0.0,-999.0,68,-99.99,,,0.00,weatherlink.com 1.10,2013-07-12 09:46:00,
2013-07-12 05:01:00,69.9,59.0,29.90,ESE,123,0.0,-999.0,69,-99.99,,,0.00,weatherlink.com 1.10,2013-07-12 10:01:00,
2013-07-12 05:16:00,69.8,59.0,29.90,SE,140,0.0,-999.0,69,-99.99,,,0.00,weatherlink.com 1.10,2013-07-12 10:16:00,
2013-07-12 05:31:00,70.0,59.0,29.90,SSW,203,0.0,-999.0,68,-99.99,,,0.00,weatherlink.com 1.10,2013-07-12 10:31:00,
2013-07-12 05:46:00,70.0,59.0,29.91,SE,137,0.0,-999.0,69,-99.99,,,0.00,weatherlink.com 1.10,2013-07-12 10:46:00,
2013-07-12 06:01:00,69.8,59.0,29.90,ENE,72,0.0,-999.0,69,-99.99,,,0.00,weatherlink.com 1.10,2013-07-12 11:01:00,
2013-07-12 06:16:00,69.7,60.0,29.90,SE,144,0.0,-999.0,70,-99.99,,,0.00,weatherlink.com 1.10,2013-07-12 11:16:00,
2013-07-12 06:31:00,69.9,60.0,29.90,ESE,120,0.0,-999.0,70,-99.99,,,0.00,weatherlink.com 1.10,2013-07-12 11:31:00,
2013-07-12 06:46:00,70.3,60.0,29.91,SE,136,0.0,-999.0,71,-99.99,,,0.00,weatherlink.com 1.10,2013-07-12 11:46:00,
2013-07-12 07:01:00,70.8,61.0,29.90,ESE,121,0.0,-999.0,70,-99.99,,,0.00,weatherlink.com 1.10,2013-07-12 12:01:00,
2013-07-12 07:16:00,71.1,61.0,29.91,ESE,114,0.0,-999.0,71,-99.99,,,0.00,weatherlink.com 1.10,2013-07-12 12:16:00,
2013-07-12 07:31:00,71.3,61.0,29.91,ESE,114,0.0,-999.0,71,-99.99,,,0.00,weatherlink.com 1.10,2013-07-12 12:31:00,
2013-07-12 07:46:00,71.5,62.0,29.91,SSE,151,0.0,-999.0,71,-99.99,,,0.00,weatherlink.com 1.10,2013-07-12 12:46:00,
2013-07-12 08:01:00,72.2,62.0,29.92,ESE,117,0.0,-999.0,71,-99.99,,,0.00,weatherlink.com 1.10,2013-07-12 13:01:00,
2013-07-12 08:16:00,74.0,63.0,29.92,ESE,115,0.0,-999.0,68,-99.99,,,0.00,weatherlink.com 1.10,2013-07-12 13:16:00,
2013-07-12 08:31:00,74.1,62.0,29.92,SE,132,0.0,-999.0,67,-99.99,,,0.00,weatherlink.com 1.10,2013-07-12 13:31:00,
2013-07-12 08:46:00,74.2,63.0,29.92,ENE,69,0.0,-999.0,68,-99.99,,,0.00,weatherlink.com 1.10,2013-07-12 13:46:00,
2013-07-12 09:01:00,74.9,64.0,29.91,South,169,0.0,-999.0,68,-99.99,,,0.00,weatherlink.com 1.10,2013-07-12 14:01:00,
2013-07-12 09:16:00,75.3,63.0,29.92,South,188,0.0,-999.0,66,-99.99,,,0.00,weatherlink.com 1.10,2013-07-12 14:16:00,
2013-07-12 09:31:00,76.1,64.0,29.91,SE,134,0.0,-999.0,66,-99.99,,,0.00,weatherlink.com 1.10,2013-07-12 14:31:00,
2013-07-12 10:18:00,-999.0,-99.9,29.93,North,-999,-999.0,-999.0,-999,-99.99,,,0.00,weatherlink.com 1.10,2013-07-12 15:18:00,
2013-07-12 10:31:00,78.2,65.0,29.88,SSE,148,0.0,-999.0,64,-99.99,,,0.00,weatherlink.com 1.10,2013-07-12 15:31:00,
2013-07-12 10:46:00,78.5,64.0,29.88,ESE,123,0.0,-999.0,62,-99.99,,,0.00,weatherlink.com 1.10,2013-07-12 15:46:00,
2013-07-12 11:01:00,79.3,65.0,29.87,East,94,0.0,-999.0,62,-99.99,,,0.00,weatherlink.com 1.10,2013-07-12 16:01:00,
2013-07-12 11:16:00,80.0,65.0,29.87,SE,146,0.0,-999.0,61,-99.99,,,0.00,weatherlink.com 1.10,2013-07-12 16:16:00,
2013-07-12 11:31:00,80.5,65.0,29.87,SE,142,0.0,-999.0,60,-99.99,,,0.00,weatherlink.com 1.10,2013-07-12 16:31:00,
2013-07-12 11:46:00,81.3,66.0,29.87,ESE,109,0.0,-999.0,61,-99.99,,,0.00,weatherlink.com 1.10,2013-07-12 16:46:00,
2013-07-12 12:31:00,82.8,67.0,29.86,SE,130,0.0,-999.0,59,-99.99,,,0.00,weatherlink.com 1.10,2013-07-12 17:31:00,
2013-07-12 12:46:00,83.2,68.0,29.86,SE,141,0.0,-999.0,60,-99.99,,,0.00,weatherlink.com 1.10,2013-07-12 17:46:00,
2013-07-12 13:16:00,84.1,68.0,29.86,East,90,0.0,-999.0,58,-99.99,,,0.00,weatherlink.com 1.10,2013-07-12 18:16:00,
2013-07-12 13:31:00,85.0,66.0,29.85,SE,132,0.0,-999.0,54,-99.99,,,0.00,weatherlink.com 1.10,2013-07-12 18:31:00,
2013-07-12 13:46:00,85.2,67.0,29.85,SE,144,0.0,-999.0,55,-99.99,,,0.00,weatherlink.com 1.10,2013-07-12 18:46:00,
2013-07-12 14:01:00,85.5,66.0,29.84,SSW,197,0.0,-999.0,53,-99.99,,,0.00,weatherlink.com 1.10,2013-07-12 19:01:00,
2013-07-12 14:16:00,86.2,67.0,29.84,SE,132,0.0,-999.0,53,-99.99,,,0.00,weatherlink.com 1.10,2013-07-12 19:16:00,
2013-07-12 14:46:00,86.7,66.0,29.84,ENE,67,0.0,-999.0,51,-99.99,,,0.00,weatherlink.com 1.10,2013-07-12 19:46:00,
2013-07-12 15:01:00,86.9,66.0,29.84,South,190,0.0,-999.0,50,-99.99,,,0.00,weatherlink.com 1.10,2013-07-12 20:01:00,
2013-07-12 15:16:00,87.4,67.0,29.83,SE,141,0.0,-999.0,51,-99.99,,,0.00,weatherlink.com 1.10,2013-07-12 20:16:00,
2013-07-12 15:47:00,87.4,67.0,29.82,East,98,0.0,-999.0,50,-99.99,,,0.00,weatherlink.com 1.10,2013-07-12 20:47:00,
2013-07-12 16:02:00,87.2,66.0,29.82,SE,145,0.0,-999.0,50,-99.99,,,0.00,weatherlink.com 1.10,2013-07-12 21:02:00,
2013-07-12 16:17:00,87.0,66.0,29.82,ESE,123,0.0,-999.0,50,-99.99,,,0.00,weatherlink.com 1.10,2013-07-12 21:17:00,
2013-07-12 16:32:00,87.0,66.0,29.81,ESE,119,0.0,-999.0,50,-99.99,,,0.00,weatherlink.com 1.10,2013-07-12 21:32:00,
2013-07-12 16:47:00,86.6,67.0,29.81,SE,132,0.0,-999.0,52,-99.99,,,0.00,weatherlink.com 1.10,2013-07-12 21:47:00,
2013-07-12 17:02:00,86.2,66.0,29.82,ESE,110,0.0,-999.0,52,-99.99,,,0.00,weatherlink.com 1.10,2013-07-12 22:02:00,
2013-07-12 17:47:00,85.7,66.0,29.81,SSW,198,0.0,-999.0,52,-99.99,,,0.00,weatherlink.com 1.10,2013-07-12 22:47:00,
2013-07-12 18:02:00,85.6,66.0,29.81,ESE,122,0.0,-999.0,52,-99.99,,,0.00,weatherlink.com 1.10,2013-07-12 23:02:00,
2013-07-12 18:17:00,85.3,66.0,29.81,ENE,72,0.0,-999.0,52,-99.99,,,0.00,weatherlink.com 1.10,2013-07-12 23:17:00,
2013-07-12 18:32:00,85.1,67.0,29.81,SE,140,0.0,-999.0,54,-99.99,,,0.00,weatherlink.com 1.10,2013-07-12 23:32:00,
2013-07-12 19:02:00,84.1,65.0,29.81,ESE,109,0.0,-999.0,53,-99.99,,,0.00,weatherlink.com 1.10,2013-07-13 00:02:00,
2013-07-12 19:17:00,83.6,65.0,29.81,SE,125,0.0,-999.0,53,-99.99,,,0.00,weatherlink.com 1.10,2013-07-13 00:17:00,
2013-07-12 19:32:00,83.4,64.0,29.80,East,94,0.0,-999.0,53,-99.99,,,0.00,weatherlink.com 1.10,2013-07-13 00:32:00,
2013-07-12 19:47:00,83.1,64.0,29.80,SE,129,0.0,-999.0,53,-99.99,,,0.00,weatherlink.com 1.10,2013-07-13 00:47:00,
2013-07-12 20:02:00,82.7,64.0,29.79,South,178,0.0,-999.0,53,-99.99,,,0.00,weatherlink.com 1.10,2013-07-13 01:02:00,
2013-07-12 20:47:00,82.0,63.0,29.79,SE,136,0.0,-999.0,53,-99.99,,,0.00,weatherlink.com 1.10,2013-07-13 01:47:00,
2013-07-12 21:02:00,81.6,63.0,29.79,SE,126,0.0,-999.0,53,-99.99,,,0.00,weatherlink.com 1.10,2013-07-13 02:02:00,
2013-07-12 21:17:00,81.1,63.0,29.79,SSE,149,0.0,-999.0,54,-99.99,,,0.00,weatherlink.com 1.10,2013-07-13 02:17:00,
2013-07-12 21:32:00,80.7,63.0,29.79,SE,133,0.0,-999.0,56,-99.99,,,0.00,weatherlink.com 1.10,2013-07-13 02:32:00,
2013-07-12 21:47:00,80.4,63.0,29.79,SSE,164,0.0,-999.0,56,-99.99,,,0.00,weatherlink.com 1.10,2013-07-13 02:47:00,
2013-07-12 22:32:00,79.3,63.0,29.81,SE,131,0.0,-999.0,57,-99.99,,,0.00,weatherlink.com 1.10,2013-07-13 03:32:00,
2013-07-12 22:47:00,79.0,63.0,29.83,East,93,0.0,-999.0,58,-99.99,,,0.00,weatherlink.com 1.10,2013-07-13 03:47:00,
2013-07-12 23:02:00,78.7,63.0,29.83,SE,135,0.0,-999.0,58,-99.99,,,0.00,weatherlink.com 1.10,2013-07-13 04:02:00,
2013-07-12 23:17:00,78.4,63.0,29.84,SE,127,0.0,-999.0,59,-99.99,,,0.00,weatherlink.com 1.10,2013-07-13 04:17:00,
2013-07-12 23:32:00,78.1,62.0,29.83,SE,130,0.0,-999.0,59,-99.99,,,0.00,weatherlink.com 1.10,2013-07-13 04:32:00,
2013-07-12 23:47:00,77.9,63.0,29.83,SSE,151,0.0,-999.0,60,-99.99,,,0.00,weatherlink.com 1.10,2013-07-13 04:47:00,